Bellmunt (Osona)





Hora UTC 16:40
Temperatura 9.1 ºC
Humedad 82.0 %
Presión 1009.1 hPa
Pluja 0.0 mm
Velocidad viento 0.0 km/h
Dirección viento SE

Datos diarios 2024-04-16



Hora UTC (invierno +1h; verano +2h)
Temperatura (ºC) Humedad (%) Presión (hPa) Velocidad viento (km/h) Precipitación (mm)
Hora UTC Aire Humedad Presión Vel. Dir. Vel. Max Dir. Intent. máx 5 min.
00:05 9.2 74.0 1013.0 17.7 S 17.7 0.0
00:10 8.9 74.0 1013.0 12.9 SSW 19.3 0.0
00:15 8.8 75.0 1013.0 14.5 SSW 19.3 0.0
00:20 8.7 75.0 1012.8 14.5 SSW 19.3 0.0
00:25 8.6 75.0 1012.7 16.1 SW 19.3 0.0
00:30 8.4 75.0 1012.7 14.5 SW 17.7 0.0
00:35 8.3 76.0 1012.8 9.7 SW 16.1 0.0
00:40 8.3 76.0 1012.7 11.3 SW 14.5 0.0
00:45 8.2 77.0 1012.6 12.9 SW 16.1 0.0
00:50 8.1 78.0 1012.5 12.9 WSW 16.1 0.0
00:55 8.1 78.0 1012.5 12.9 WSW 16.1 0.0
01:00 7.9 79.0 1012.4 14.5 WSW 16.1 0.0
01:05 7.9 79.0 1012.3 12.9 W 16.1 0.0
01:10 7.8 79.0 1012.3 9.7 W 16.1 0.0
01:15 7.8 79.0 1012.2 9.7 W 14.5 0.0
01:20 7.8 79.0 1012.1 11.3 W 11.3 0.0
01:25 7.7 80.0 1012.0 11.3 W 12.9 0.0
01:30 7.7 79.0 1012.0 11.3 W 12.9 0.0
01:35 7.7 79.0 1011.9 6.4 WNW 12.9 0.0
01:40 7.6 80.0 1011.9 9.7 WNW 11.3 0.0
01:45 7.6 80.0 1011.9 6.4 WNW 11.3 0.0
01:50 7.6 79.0 1011.8 4.8 WNW 8.0 0.0
01:55 7.6 79.0 1011.9 6.4 WNW 8.0 0.0
02:00 7.5 79.0 1011.8 6.4 WNW 11.3 0.0
02:05 7.4 80.0 1011.7 4.8 WNW 11.3 0.0
02:10 7.4 79.0 1011.7 3.2 WNW 6.4 0.0
02:15 7.5 79.0 1011.7 6.4 SSW 6.4 0.0
02:20 7.5 79.0 1011.6 3.2 SW 8.0 0.0
02:25 7.4 80.0 1011.6 0.0 SW 6.4 0.0
02:30 7.4 80.0 1011.5 0.0 SW 0.0 0.0
02:35 7.4 79.0 1011.5 0.0 SW 0.0 0.0
02:40 7.3 80.0 1011.5 0.0 NW 0.0 0.0
02:45 7.2 81.0 1011.3 0.0 NW 0.0 0.0
02:50 7.0 82.0 1011.2 0.0 NW 0.0 0.0
02:55 6.9 82.0 1011.3 0.0 NW 0.0 0.0
03:00 6.9 80.0 1011.4 0.0 NW 0.0 0.0
03:05 7.1 80.0 1011.4 0.0 NW 0.0 0.0
03:10 7.1 81.0 1011.4 0.0 SW 0.0 0.0
03:15 7.1 81.0 1011.4 0.0 SW 0.0 0.0
03:20 7.1 80.0 1011.2 0.0 SW 0.0 0.0
03:25 7.1 80.0 1011.2 0.0 SW 0.0 0.0
03:30 7.2 80.0 1011.1 0.0 SSW 0.0 0.0
03:35 7.2 80.0 1011.0 4.8 S 8.0 0.0
03:40 7.1 81.0 1010.9 0.0 SE 8.0 0.0
03:45 7.0 81.0 1010.8 0.0 SE 0.0 0.0
03:50 7.0 82.0 1010.9 0.0 SE 0.0 0.0
03:55 7.2 80.0 1010.8 0.0 SSE 0.0 0.0
04:00 7.2 80.0 1010.8 0.0 WNW 0.0 0.0
04:05 6.8 81.0 1010.8 0.0 NW 0.0 0.0
04:10 6.6 83.0 1010.7 0.0 W 0.0 0.0
04:15 6.7 83.0 1010.9 0.0 W 0.0 0.0
04:20 6.9 82.0 1010.6 6.4 SSW 8.0 0.0
04:25 7.1 82.0 1010.4 8.0 S 9.7 0.0
04:30 7.1 81.0 1010.5 11.3 S 12.9 0.0
04:35 6.9 82.0 1010.7 6.4 S 12.9 0.0
04:40 6.7 82.0 1010.7 0.0 WNW 9.7 0.0
04:45 6.4 83.0 1010.8 0.0 S 4.8 0.0
04:50 6.1 84.0 1010.9 0.0 WNW 0.0 0.0
04:55 5.6 85.0 1011.0 0.0 WNW 0.0 0.0
05:00 5.3 85.0 1011.0 0.0 WNW 0.0 0.0
05:05 5.7 87.0 1011.0 0.0 SW 0.0 0.0
05:10 5.8 85.0 1011.1 3.2 S 9.7 0.0
05:15 6.2 86.0 1010.8 4.8 SW 9.7 0.0
05:20 6.3 85.0 1010.8 0.0 S 11.3 0.0
05:25 6.2 85.0 1010.9 0.0 SW 11.3 0.0
05:30 6.2 85.0 1010.9 0.0 WSW 0.0 0.0
05:35 6.2 86.0 1010.9 0.0 WSW 0.0 0.0
05:40 5.9 85.0 1011.0 6.4 SSW 6.4 0.0
05:45 5.7 86.0 1010.9 4.8 S 6.4 0.0
05:50 5.4 87.0 1010.9 4.8 SSW 9.7 0.0
05:55 5.6 88.0 1011.0 4.8 SW 9.7 0.0
06:00 5.5 87.0 1011.1 0.0 NW 6.4 0.0
06:05 5.3 87.0 1011.0 0.0 NW 1.6 0.0
06:10 5.5 88.0 1011.1 0.0 SW 0.0 0.0
06:15 5.8 87.0 1011.2 6.4 SSW 8.0 0.0
06:20 5.9 86.0 1011.1 12.9 SSW 12.9 0.0
06:25 5.8 86.0 1011.1 14.5 SSW 16.1 0.0
06:30 5.8 85.0 1011.0 11.3 SSW 16.1 0.0
06:35 5.9 83.0 1011.1 12.9 SSW 14.5 0.0
06:40 6.0 84.0 1011.1 0.0 SW 14.5 0.0
06:45 6.2 83.0 1011.0 1.6 SSW 12.9 0.0
06:50 6.2 83.0 1011.1 11.3 S 12.9 0.0
06:55 6.1 85.0 1011.2 0.0 SSE 12.9 0.0
07:00 6.1 85.0 1011.2 0.0 WSW 12.9 0.0
07:05 6.1 85.0 1011.1 8.0 SSW 12.9 0.0
07:10 6.1 84.0 1011.2 4.8 S 11.3 0.0
07:15 6.2 84.0 1010.9 6.4 SSE 14.5 0.0
07:20 6.1 85.0 1011.0 9.7 SSW 19.3 0.0
07:25 6.3 86.0 1010.9 8.0 S 14.5 0.0
07:30 6.6 85.0 1011.0 3.2 SW 12.9 0.0
07:35 6.9 84.0 1011.1 11.3 SSW 12.9 0.0
07:40 7.0 84.0 1011.0 12.9 SSW 16.1 0.0
07:45 7.0 84.0 1011.0 6.4 S 16.1 0.0
07:50 7.3 84.0 1011.0 11.3 S 14.5 0.0
07:55 7.3 84.0 1011.1 0.0 SE 14.5 0.0
08:00 7.4 85.0 1011.2 0.0 SSE 8.0 0.0
08:05 7.8 84.0 1011.1 6.4 SSE 16.1 0.0
08:10 7.9 83.0 1011.2 4.8 SW 16.1 0.0
08:15 8.2 82.0 1011.4 3.2 SSW 8.0 0.0
08:20 8.4 81.0 1011.3 0.0 SE 11.3 0.0
08:25 8.4 81.0 1011.3 3.2 SSW 11.3 0.0
08:30 8.4 82.0 1011.3 0.0 ENE 9.7 0.0
08:35 8.7 81.0 1011.2 3.2 SW 11.3 0.0
08:40 8.4 80.0 1011.2 8.0 SSW 11.3 0.0
08:45 8.3 80.0 1011.2 4.8 SSW 11.3 0.0
08:50 8.1 80.0 1011.2 4.8 SSW 11.3 0.0
08:55 7.9 81.0 1011.2 1.6 S 9.7 0.0
09:00 7.9 80.0 1011.3 6.4 SSW 9.7 0.0
09:05 7.7 81.0 1011.3 6.4 SSW 8.0 0.0
09:10 7.7 80.0 1011.3 9.7 SSE 12.9 0.0
09:15 7.6 81.0 1011.4 6.4 S 14.5 0.0
09:20 7.8 81.0 1011.3 6.4 SSW 14.5 0.0
09:25 7.8 81.0 1011.4 0.0 SSE 12.9 0.0
09:30 8.1 79.0 1011.4 4.8 SSE 14.5 0.0
09:35 7.9 80.0 1011.4 12.9 S 16.1 0.0
09:40 7.7 81.0 1011.4 4.8 S 16.1 0.0
09:45 7.9 81.0 1011.4 4.8 S 16.1 0.0
09:50 8.7 78.0 1011.4 6.4 S 16.1 0.0
09:55 8.4 79.0 1011.4 6.4 SSW 16.1 0.0
10:00 8.6 77.0 1011.4 4.8 S 11.3 0.0
10:05 8.8 78.0 1011.5 0.0 SE 11.3 0.0
10:10 9.3 77.0 1011.3 17.7 S 19.3 0.0
10:15 8.9 78.0 1011.4 4.8 SSW 17.7 0.0
10:20 9.6 75.0 1011.2 6.4 S 16.1 0.0
10:25 9.3 76.0 1011.4 11.3 S 16.1 0.0
10:30 9.1 76.0 1011.4 4.8 S 22.5 0.0
10:35 8.9 76.0 1011.4 11.3 SSW 17.7 0.0
10:40 8.9 78.0 1011.3 19.3 S 20.9 0.0
10:45 9.0 77.0 1011.2 9.7 S 20.9 0.0
10:50 9.7 76.0 1011.3 14.5 S 16.1 0.0
10:55 9.7 75.0 1011.1 11.3 S 19.3 0.0
11:00 9.5 74.0 1011.1 4.8 SSE 22.5 0.0
11:05 9.8 75.0 1011.2 3.2 S 22.5 0.0
11:10 10.3 74.0 1011.1 6.4 SSW 22.5 0.0
11:15 10.4 71.0 1011.0 17.7 SSW 24.1 0.0
11:20 10.4 72.0 1011.0 11.3 S 24.1 0.0
11:25 10.3 72.0 1011.0 8.0 S 24.1 0.0
11:30 10.1 72.0 1010.9 14.5 SSW 27.4 0.0
11:35 10.5 71.0 1011.0 14.5 SW 27.4 0.0
11:40 10.5 72.0 1010.9 16.1 S 27.4 0.0
11:45 10.8 69.0 1010.8 19.3 S 32.2 0.0
11:50 10.2 70.0 1010.9 8.0 S 27.4 0.0
11:55 10.7 69.0 1010.8 9.7 WSW 25.7 0.0
12:00 10.7 69.0 1010.8 11.3 SSW 22.5 0.0
12:05 10.4 69.0 1010.8 9.7 SSW 20.9 0.0
12:10 11.3 66.0 1010.6 14.5 SSW 22.5 0.0
12:15 11.3 67.0 1010.6 12.9 SSW 22.5 0.0
12:20 10.7 67.0 1010.6 4.8 SW 22.5 0.0
12:25 10.8 67.0 1010.7 9.7 SSW 24.1 0.0
12:30 11.1 67.0 1010.7 12.9 S 30.6 0.0
12:35 11.4 66.0 1010.7 17.7 SSW 29.0 0.0
12:40 11.6 66.0 1010.7 14.5 SW 25.7 0.0
12:45 11.1 67.0 1010.6 12.9 S 25.7 0.0
12:50 11.6 65.0 1010.7 12.9 SSW 27.4 0.0
12:55 11.2 64.0 1010.5 0.0 S 27.4 0.0
13:00 11.1 65.0 1010.5 14.5 S 22.5 0.0
13:05 11.1 64.0 1010.4 22.5 S 24.1 0.0
13:10 11.0 64.0 1010.4 14.5 S 25.7 0.0
13:15 11.5 62.0 1010.5 22.5 SSW 25.7 0.0
13:20 11.9 61.0 1010.6 17.7 SSW 27.4 0.0
13:25 11.8 63.0 1010.4 27.4 S 29.0 0.0
13:30 11.7 62.0 1010.3 14.5 SSW 29.0 0.0
13:35 12.2 61.0 1010.3 12.9 SSW 27.4 0.0
13:40 12.1 60.0 1010.1 22.5 S 33.8 0.0
13:45 11.5 61.0 1010.2 8.0 SSW 33.8 0.0
13:50 12.2 61.0 1010.2 4.8 SSW 25.7 0.0
13:55 12.8 59.0 1010.1 6.4 S 27.4 0.0
14:00 13.1 58.0 1010.0 14.5 SSW 27.4 0.0
14:05 12.4 58.0 1010.0 8.0 SSW 22.5 0.0
14:10 12.3 60.0 1010.0 11.3 S 25.7 0.0
14:15 11.9 60.0 1009.9 14.5 WSW 25.7 0.0
14:20 12.5 58.0 1010.0 14.5 SSW 24.1 0.0
14:25 12.4 59.0 1009.9 1.6 SE 22.5 0.0
14:30 13.0 57.0 1009.8 22.5 SSW 24.1 0.0
14:35 12.8 58.0 1009.8 20.9 SW 32.2 0.0
14:40 13.0 55.0 1009.6 14.5 SSW 33.8 0.0
14:45 13.2 55.0 1009.7 14.5 SW 33.8 0.0
14:50 13.2 56.0 1009.5 6.4 SSW 22.5 0.0
14:55 13.6 53.0 1009.4 29.0 SSW 33.8 0.0
15:00 13.3 52.0 1009.6 22.5 SSW 37.0 0.0
15:05 13.1 53.0 1009.5 16.1 SSW 37.0 0.0
15:10 13.3 54.0 1009.5 3.2 WNW 27.4 0.0
15:15 13.4 52.0 1009.5 17.7 SW 32.2 0.0
15:20 12.8 54.0 1009.0 20.9 SSW 33.8 0.0
15:25 12.9 54.0 1009.3 17.7 SW 33.8 0.0
15:30 12.9 54.0 1009.1 30.6 SW 33.8 0.0
15:35 12.6 60.0 1009.2 20.9 SSW 35.4 0.0
15:40 12.3 61.0 1009.1 25.7 SSW 35.4 0.0
15:45 12.1 64.0 1009.1 16.1 S 37.0 0.0
15:50 11.8 66.0 1009.2 27.4 SSW 37.0 0.0
15:55 11.5 69.0 1009.2 12.9 SSW 30.6 0.0
16:00 11.0 72.0 1009.1 20.9 SSW 37.0 0.0
16:05 10.8 73.0 1009.0 24.1 S 37.0 0.0
16:10 10.7 74.0 1009.0 14.5 S 33.8 0.0
16:15 10.4 75.0 1008.9 1.6 W 32.2 0.0
16:20 10.4 76.0 1009.0 1.6 ESE 32.2 0.0
16:25 9.7 79.0 1009.0 0.0 WNW 25.7 0.0
16:30 9.2 80.0 1009.1 0.0 NW 4.8 0.0
16:35 9.1 81.0 1009.1 0.0 W 1.6 0.0
16:40 9.1 82.0 1009.1 0.0 SE 1.6 0.0
Máxima 13.7 88.0 1013.0 30.6 SW 37.0 0.0
Mínima 5.3 52.0 1008.9
Total 0.0